Regional Weather Roundup
Issued by NWS

Home | Current Version | Previous Version | Graphics & Text | Print | Product List | Glossary On
Versions: 1 2 3 4 5 6 7 8 9 10 11 12 13 14 15 16 17 18 19 20 21 22 23 24 25 26 27 28 29 30 31 32 33 34 35 36 37 38 39 40 41 42 43 44 45 46 47 48 49 50
153
ASUS43 KBIS 161910
RWRND

NORTH DAKOTA REGIONAL WEATHER ROUNDUP
NATIONAL WEATHER SERVICE BISMARCK ND
100 PM CST MON JAN 16 2017

NOTE: "FAIR" INDICATES FEW OR NO CLOUDS BELOW 12,000 FEET WITH NO
SIGNIFICANT WEATHER AND/OR OBSTRUCTIONS TO VISIBILITY.


NDZ001>003-009>011-017-162000-
NORTHWEST NORTH DAKOTA

CITY           SKY/WX    TMP DP  RH WIND       PRES   REMARKS
WILLISTON      FAIR      16   9  74 SW8       30.12F WCI   5
MINOT          FAIR      27  20  75 W9        30.04F WCI  18
$$

NDZ018>021-031>035-040>046-162000-
SOUTHWEST NORTH DAKOTA

CITY           SKY/WX    TMP DP  RH WIND       PRES   REMARKS
BISMARCK       FAIR      23  11  60 NW7       30.07F WCI  15
DICKINSON      FAIR      19  12  74 W13       30.05F WCI   6
GARRISON         N/A     20  13  74 NW8       30.05F WCI  10
HETTINGER ARPT SUNNY     21  13  71 NW12      30.07F WCI   9
$$

NDZ004>008-012>016-024-026-027-054-162000-
NORTHEAST NORTH DAKOTA

CITY           SKY/WX    TMP DP  RH WIND       PRES   REMARKS
GRAND FORKS    MOSUNNY   18  10  71 SW6       30.05F WCI  10
GRND FRKS AFB  SUNNY     21  10  60 W3        30.04F
DEVILS LAKE    FAIR      14   9  80 NW7       30.02F WCI   4
$$

NDZ022-023-025-028>030-036>039-047>053-162000-
SOUTHEAST NORTH DAKOTA

CITY           SKY/WX    TMP DP  RH WIND       PRES   REMARKS
FARGO          CLOUDY    18  10  71 S3        30.07F
JAMESTOWN      FAIR      17  10  74 SW5       30.03F WCI  10
$$





USA.gov is the U.S. government's official web portal to all federal, state and local government web resources and services.